Weather History for Slayton, MN

Change the Weather History Date:

Saturday, August 17, 2013

  Actual Average (KOTG) Record (KOTG)
Temperature  
Mean Temperature 62 °F -  
Max Temperature 76 °F 74 °F 98 °F (1988)
Min Temperature 49 °F 56 °F 43 °F (1981)
Degree Days  
Heating Degree Days 2    
Growing Degree Days 12 (Base 50)    
Moisture  
Dew Point 56 °F    
Average Humidity 76    
Maximum Humidity 99    
Minimum Humidity 52    
Precipitation  
Precipitation 0.00 in - - ()
Sea Level Pressure  
Sea Level Pressure 30.17 in    
Wind  
Wind Speed 7 mph (South)    
Max Wind Speed 15 mph    
Max Gust Speed 22 mph    
Visibility 9 miles    
Events      
Averages and records for this station are not official NWS values.
T = Trace of Precipitation, MM = Missing Value Source: NWS Daily Summary

Daily Weather History Graph

Daily Weather History Graph

Search for Another Location

Airport:

Trip Planner

Search our weather history database for the weather conditions in past years. The results will help you decide how hot, cold, wet, or windy it might be!

Date:

Astronomy

Aug. 17, 2013 Rise Set
Actual Time 6:29 AM CDT 8:23 PM CDT
Civil Twilight 5:58 AM CDT 8:54 PM CDT
Nautical Twilight 5:20 AM CDT 9:32 PM CDT
Astronomical Twilight 4:39 AM CDT 10:13 PM CDT
Moon 5:43 PM CDT (8/17) 2:29 AM CDT (8/17)
Length of Visible Light 14h 56m
Length of Day
13h 54m
Waxing Gibbous, 84% of the Moon is Illuminated
Aug 17
Waxing Gibbous
Aug 20
Full
Aug 28
Last Quarter
Sep 5
New
Sep 12
First Quarter

Hourly Weather History & Observations

Time (CDT) Temp. Dew Point Humidity Pressure Visibility Wind Dir Wind Speed Gust Speed Precip Events Conditions
12:13 AM 55.4 °F 54.7 °F 97% 30.20 in 7.0 mi SSE 3.5 mph - N/A   Scattered Clouds
12:33 AM 56.3 °F 55.0 °F 96% 30.20 in 10.0 mi SSW 3.5 mph - N/A   Scattered Clouds
12:53 AM 56.5 °F 55.2 °F 96% 30.20 in 10.0 mi South 4.6 mph - N/A   Clear
1:13 AM 55.9 °F 54.5 °F 95% 30.20 in 10.0 mi South 4.6 mph - N/A   Clear
1:33 AM 55.4 °F 53.6 °F 94% 30.20 in 10.0 mi South 4.6 mph - N/A   Clear
1:53 AM 55.2 °F 54.0 °F 96% 30.20 in 10.0 mi South 4.6 mph - N/A   Clear
2:13 AM 54.9 °F 53.4 °F 95% 30.20 in 10.0 mi South 3.5 mph - N/A   Clear
2:33 AM 54.1 °F 52.9 °F 95% 30.20 in 10.0 mi South 3.5 mph - N/A   Clear
2:53 AM 52.9 °F 51.8 °F 96% 30.19 in 7.0 mi SSE 5.8 mph - N/A   Clear
3:13 AM 52.2 °F 51.8 °F 99% 30.19 in 7.0 mi SSE 5.8 mph - N/A   Clear
3:33 AM 52.9 °F 52.2 °F 97% 30.20 in 7.0 mi SSE 5.8 mph - N/A   Clear
3:53 AM 52.3 °F 52.0 °F 99% 30.20 in 7.0 mi South 3.5 mph - N/A   Clear
4:13 AM 51.8 °F 51.3 °F 98% 30.20 in 5.0 mi SSE 5.8 mph - N/A   Clear
4:33 AM 51.1 °F 50.7 °F 99% 30.20 in 5.0 mi SSE 5.8 mph - N/A   Clear
4:53 AM 51.6 °F 51.4 °F 99% 30.20 in 7.0 mi South 3.5 mph - N/A   Clear
5:13 AM 52.0 °F 51.4 °F 98% 30.20 in 7.0 mi SSE 4.6 mph - N/A   Clear
5:33 AM 50.2 °F 49.6 °F 98% 30.20 in 5.0 mi SSE 4.6 mph - N/A   Clear
5:54 AM 50.2 °F 50.0 °F 99% 30.20 in 5.0 mi SE 4.6 mph - N/A   Clear
6:13 AM 50.2 °F 50.0 °F 99% 30.20 in 5.0 mi SE 3.5 mph - N/A   Clear
6:33 AM 49.8 °F 49.5 °F 99% 30.20 in 5.0 mi SE 4.6 mph - N/A   Clear
6:52 AM 50.7 °F 50.4 °F 99% 30.20 in 5.0 mi SSE 4.6 mph - N/A   Scattered Clouds
7:13 AM 52.0 °F 51.8 °F 99% 30.20 in 5.0 mi SSE 4.6 mph - N/A   Scattered Clouds
7:34 AM 53.8 °F 52.9 °F 97% 30.20 in 7.0 mi SSE 4.6 mph - N/A   Clear
7:54 AM 55.6 °F 54.3 °F 96% 30.20 in 7.0 mi SSE 4.6 mph - N/A   Clear
8:13 AM 57.6 °F 55.8 °F 94% 30.21 in 7.0 mi SSE 3.5 mph - N/A   Clear
8:33 AM 60.3 °F 57.0 °F 89% 30.20 in 10.0 mi SSE 5.8 mph - N/A   Clear
8:53 AM 62.8 °F 56.7 °F 80% 30.20 in 10.0 mi South 8.1 mph - N/A   Clear
9:13 AM 64.4 °F 56.3 °F 75% 30.20 in 10.0 mi South 8.1 mph - N/A   Clear
9:33 AM 66.2 °F 56.3 °F 70% 30.20 in 10.0 mi South 6.9 mph - N/A   Clear
9:52 AM 68.9 °F 55.2 °F 62% 30.20 in 10.0 mi South 10.4 mph - N/A   Scattered Clouds
10:13 AM 69.4 °F 55.8 °F 62% 30.20 in 10.0 mi South 11.5 mph - N/A   Scattered Clouds
10:33 AM 70.5 °F 55.9 °F 60% 30.20 in 10.0 mi South 13.8 mph 20.7 mph N/A   Clear
10:53 AM 70.7 °F 56.7 °F 61% 30.20 in 7.0 mi South 12.7 mph 19.6 mph N/A   Clear
11:13 AM 71.1 °F 57.0 °F 61% 30.20 in 10.0 mi South 12.7 mph 18.4 mph N/A   Clear
11:33 AM 72.3 °F 57.9 °F 60% 30.19 in 10.0 mi South 11.5 mph 17.3 mph N/A   Clear
11:53 AM 72.5 °F 57.9 °F 60% 30.19 in 10.0 mi South 12.7 mph 18.4 mph N/A   Scattered Clouds
12:14 PM 73.0 °F 57.9 °F 59% 30.19 in 10.0 mi South 12.7 mph 18.4 mph N/A   Scattered Clouds
12:33 PM 73.6 °F 58.3 °F 59% 30.18 in 10.0 mi South 12.7 mph 21.9 mph N/A   Clear
12:54 PM 74.3 °F 58.6 °F 58% 30.18 in 10.0 mi South 11.5 mph 19.6 mph N/A   Scattered Clouds
1:14 PM 74.8 °F 58.1 °F 56% 30.18 in 10.0 mi South 13.8 mph 21.9 mph N/A   Scattered Clouds
1:33 PM 75.2 °F 58.3 °F 56% 30.17 in 10.0 mi South 12.7 mph 18.4 mph N/A   Scattered Clouds
1:53 PM 75.2 °F 57.9 °F 55% 30.17 in 10.0 mi South 13.8 mph 21.9 mph N/A   Scattered Clouds
2:13 PM 74.8 °F 58.8 °F 57% 30.17 in 10.0 mi South 13.8 mph 17.3 mph N/A   Mostly Cloudy
2:33 PM 75.0 °F 58.3 °F 56% 30.17 in 10.0 mi South 9.2 mph 19.6 mph N/A   Mostly Cloudy
2:53 PM 75.4 °F 57.6 °F 54% 30.16 in 10.0 mi South 10.4 mph - N/A   Mostly Cloudy
3:13 PM 75.0 °F 57.2 °F 54% 30.16 in 10.0 mi South 12.7 mph 17.3 mph N/A   Mostly Cloudy
3:33 PM 75.6 °F 58.1 °F 55% 30.15 in 10.0 mi South 12.7 mph 19.6 mph N/A   Scattered Clouds
3:53 PM 76.1 °F 57.4 °F 52% 30.15 in 10.0 mi SSE 15.0 mph 19.6 mph N/A   Scattered Clouds
4:12 PM 75.6 °F 56.7 °F 52% 30.15 in 10.0 mi South 11.5 mph 20.7 mph N/A   Scattered Clouds
4:33 PM 74.7 °F 57.4 °F 55% 30.15 in 10.0 mi South 11.5 mph 17.3 mph N/A   Mostly Cloudy
4:53 PM 74.5 °F 57.2 °F 55% 30.15 in 10.0 mi South 12.7 mph 17.3 mph N/A   Overcast
5:14 PM 74.5 °F 57.4 °F 55% 30.15 in 10.0 mi South 12.7 mph 17.3 mph N/A   Overcast
5:33 PM 74.7 °F 57.4 °F 55% 30.15 in 10.0 mi South 12.7 mph 19.6 mph N/A   Mostly Cloudy
5:53 PM 74.8 °F 57.0 °F 54% 30.14 in 10.0 mi South 11.5 mph 17.3 mph N/A   Scattered Clouds
6:13 PM 74.8 °F 56.8 °F 53% 30.14 in 10.0 mi South 10.4 mph 16.1 mph N/A   Mostly Cloudy
6:33 PM 74.5 °F 56.5 °F 53% 30.14 in 10.0 mi South 10.4 mph 16.1 mph N/A   Scattered Clouds
6:53 PM 73.9 °F 56.3 °F 54% 30.13 in 10.0 mi South 8.1 mph - N/A   Clear
7:13 PM 72.9 °F 55.4 °F 54% 30.13 in 10.0 mi South 10.4 mph 18.4 mph N/A   Clear
7:33 PM 72.7 °F 56.3 °F 56% 30.13 in 10.0 mi South 5.8 mph - N/A   Clear
7:53 PM 69.6 °F 57.6 °F 65% 30.13 in 10.0 mi South 4.6 mph - N/A   Clear
8:13 PM 68.0 °F 58.3 °F 71% 30.13 in 10.0 mi South 5.8 mph - N/A   Clear
8:33 PM 65.5 °F 58.5 °F 78% 30.13 in 10.0 mi South 6.9 mph - N/A   Clear
8:53 PM 63.9 °F 58.1 °F 81% 30.13 in 10.0 mi South 6.9 mph - N/A   Clear
9:13 PM 64.0 °F 57.6 °F 79% 30.14 in 10.0 mi South 5.8 mph - N/A   Clear
9:33 PM 63.3 °F 57.6 °F 81% 30.14 in 10.0 mi South 6.9 mph - N/A   Clear
9:53 PM 61.0 °F 57.2 °F 87% 30.14 in 10.0 mi South 4.6 mph - N/A   Clear
10:13 PM 61.9 °F 57.2 °F 85% 30.14 in 10.0 mi South 3.5 mph - N/A   Clear
10:34 PM 60.3 °F 56.5 °F 87% 30.14 in 10.0 mi South 6.9 mph - N/A   Clear
10:53 PM 59.5 °F 56.3 °F 89% 30.13 in 10.0 mi South 5.8 mph - N/A   Clear
11:13 PM 60.3 °F 56.3 °F 87% 30.14 in 10.0 mi SSW 6.9 mph - N/A   Clear
11:33 PM 59.9 °F 55.8 °F 86% 30.14 in 10.0 mi South 5.8 mph - N/A   Clear
11:53 PM 60.4 °F 55.9 °F 85% 30.14 in 10.0 mi SSW 8.1 mph - N/A   Clear